Weather History for Salt Lake City, UT

Change the Weather History Date:

Friday, July 13, 2012

  Actual Average Record
Temperature  
Mean Temperature 86 °F 79 °F  
Max Temperature 93 °F 93 °F 107 °F (2002)
Min Temperature 78 °F 65 °F 47 °F (1943)
Degree Days  
Heating Degree Days 0 0  
Month to date heating degree days 0 0  
Since 1 June heating degree days 38 46  
Since 1 July heating degree days 0 0  
Cooling Degree Days 21 14  
Month to date cooling degree days 237 160  
Year to date cooling degree days 616 397  
Since 1 June cooling degree days 538 347  
Growing Degree Days 31 (Base 50)    
Moisture  
Dew Point 51 °F    
Average Humidity 29    
Maximum Humidity 36    
Minimum Humidity 21    
Precipitation  
Precipitation T in 0.02 in 2.28 in (1962)
Month to date precipitation 0.29 0.21  
Year to date precipitation 6.81 9.42  
Snow  
Snow 0.00 in 0.00 in - ()
Month to date snowfall 0.0 0.0  
Since 1 July snowfall 0.0 0.0  
Snow Depth 0.00 in    
Sea Level Pressure  
Sea Level Pressure 29.86 in    
Wind  
Wind Speed 9 mph (SSE)    
Max Wind Speed 35 mph    
Max Gust Speed 43 mph    
Visibility 10 miles    
Events Rain    
T = Trace of Precipitation, MM = Missing Value Source: NWS Daily Summary

Daily Weather History Graph

Daily Weather History Graph

Search for Another Location

Airport:

Trip Planner

Search our weather history database for the weather conditions in past years. The results will help you decide how hot, cold, wet, or windy it might be!

Date:

Astronomy

Jul. 13, 2012 Rise Set
Actual Time 6:08 AM MDT 8:58 PM MDT
Civil Twilight 5:35 AM MDT 9:31 PM MDT
Nautical Twilight 4:54 AM MDT 10:12 PM MDT
Astronomical Twilight 4:07 AM MDT 10:58 PM MDT
Moon 1:48 AM MDT (7/13) 4:31 PM MDT (7/13)
Length of Visible Light 15h 55m
Length of Day
14h 50m
Waning Crescent, 26% of the Moon is Illuminated
Jul 13
Waning Crescent
Jul 18
New
Jul 26
First Quarter
Aug 1
Full
Aug 9
Last Quarter

Hourly Weather History & Observations

Time (MDT) Temp. Heat Index Dew Point Humidity Pressure Visibility Wind Dir Wind Speed Gust Speed Precip Events Conditions
12:53 AM 82.0 °F - 46.9 °F 29% 29.78 in 10.0 mi South 4.6 mph - N/A   Mostly Cloudy
1:53 AM 82.0 °F - 44.1 °F 26% 29.79 in 10.0 mi ESE 5.8 mph - N/A   Mostly Cloudy
2:53 AM 81.0 °F - 46.9 °F 30% 29.78 in 10.0 mi South 5.8 mph - N/A   Mostly Cloudy
3:53 AM 79.0 °F - 45.0 °F 30% 29.78 in 10.0 mi SSE 9.2 mph - N/A   Mostly Cloudy
4:53 AM 82.0 °F - 48.0 °F 30% 29.80 in 10.0 mi South 16.1 mph 21.9 mph N/A   Mostly Cloudy
5:53 AM 81.0 °F - 48.9 °F 33% 29.82 in 10.0 mi SE 8.1 mph - N/A   Mostly Cloudy
6:53 AM 82.0 °F - 50.0 °F 33% 29.83 in 9.0 mi South 10.4 mph 19.6 mph N/A   Mostly Cloudy
7:53 AM 81.0 °F - 51.1 °F 35% 29.85 in 10.0 mi South 5.8 mph - N/A   Mostly Cloudy
8:53 AM 82.9 °F - 50.0 °F 32% 29.87 in 9.0 mi SSE 5.8 mph - N/A   Mostly Cloudy
9:53 AM 84.0 °F - 51.1 °F 32% 29.88 in 9.0 mi South 13.8 mph - N/A   Mostly Cloudy
10:53 AM 84.0 °F - 52.0 °F 33% 29.91 in 10.0 mi South 12.7 mph - N/A   Mostly Cloudy
11:53 AM 84.9 °F - 50.0 °F 30% 29.91 in 9.0 mi South 12.7 mph - 0.00 in Rain Light Rain
12:53 PM 86.0 °F - 50.0 °F 29% 29.91 in 10.0 mi East 5.8 mph - 0.00 in   Overcast
1:53 PM 88.0 °F - 48.9 °F 26% 29.88 in 10.0 mi NNE 6.9 mph - 0.00 in Rain Light Rain
2:53 PM 91.0 °F - 48.9 °F 23% 29.83 in 10.0 mi North 8.1 mph - 0.00 in   Mostly Cloudy
3:53 PM 91.0 °F - 48.0 °F 23% 29.81 in 10.0 mi NNW 6.9 mph - N/A   Mostly Cloudy
4:38 PM 87.8 °F - 44.6 °F 22% 29.99 in 10.0 mi SSE 12.7 mph - 0.00 in Rain Light Rain
4:53 PM 93.0 °F - 44.1 °F 18% 29.78 in 10.0 mi South 16.1 mph 21.9 mph 0.00 in   Mostly Cloudy
5:53 PM 90.0 °F - 48.9 °F 24% 29.78 in 10.0 mi South 16.1 mph - N/A   Mostly Cloudy
6:53 PM 80.1 °F 79.9 °F 53.1 °F 39% 29.90 in 9.0 mi South 25.3 mph 42.6 mph N/A   Overcast
7:53 PM 73.0 °F - 57.0 °F 57% 29.95 in 10.0 mi South 15.0 mph - 0.00 in Rain Light Rain
8:53 PM 72.0 °F - 62.1 °F 71% 29.91 in 10.0 mi NNE 9.2 mph - 0.01 in Rain Light Rain
9:53 PM 69.1 °F - 62.1 °F 78% 29.91 in 10.0 mi WSW 6.9 mph - 0.00 in   Mostly Cloudy
10:53 PM 72.0 °F - 57.9 °F 61% 29.92 in 10.0 mi South 8.1 mph - N/A   Mostly Cloudy
11:53 PM 73.0 °F - 57.9 °F 59% 29.91 in 10.0 mi SSE 10.4 mph - N/A   Mostly Cloudy